Temp
-16 -16 -16 -16 -17 -17 -17 -17 -17 -17 -18 -18 -18 -18 -18 -19 -19 -19 -19 -20 -19 -19 -20 -20 -20 -20 -20 -20 -20 -20 -21 -21 -21 -21 -21 -21 -21 -22 -22 -22 -23 -23 -23 -23
-17 -17 -17 -17 -17 -17 -17 -16 -18 -18 -18 -18 -19 -19 -19 -19 -19 -20 -21 -21 -21 -21 -21 -20 -20 -20 -21 -21 -21 -21 -21 -21 -21 -22 -22 -23 -23 -23 -23 -23 -23 -23 -23 -23
-17 -18 -18 -18 -16 -17 -17 -17 -18 -18 -18 -18 -19 -20 -20 -20 -20 -20 -20 -20 -21 -21 -21 -21 -21 -21 -21 -21 -21 -22 -22 -22 -22 -23 -23 -23 -23 -24 -24 -24 -24 -24 -24 -24
-18 -18 -19 -17 -17 -18 -18 -19 -19 -19 -19 -19 -19 -20 -20 -21 -21 -20 -20 -20 -21 -22 -22 -23 -22 -22 -22 -22 -22 -22 -22 -23 -23 -23 -23 -24 -24 -24 -24 -24 -24 -24 -24 -24
-19 -19 -19 -18 -18 -18 -19 -19 -19 -19 -19 -20 -20 -20 -21 -21 -21 -20 -20 -21 -22 -23 -23 -23 -23 -23 -23 -23 -23 -23 -23 -23 -23 -23 -23 -24 -24 -24 -25 -25 -25 -25 -24 -24
-19 -19 -19 -18 -19 -19 -20 -20 -20 -20 -20 -21 -20 -20 -21 -21 -20 -21 -21 -22 -23 -23 -23 -23 -23 -23 -23 -23 -23 -24 -24 -24 -24 -24 -24 -24 -24 -25 -25 -25 -25 -25 -25 -24
-19 -19 -19 -18 -20 -20 -20 -20 -20 -21 -21 -20 -20 -20 -20 -21 -21 -22 -22 -23 -24 -23 -24 -23 -23 -23 -23 -23 -24 -24 -25 -25 -25 -24 -25 -25 -25 -25 -26 -25 -25 -25 -25 -25
-19 -19 -19 -19 -20 -21 -21 -21 -21 -20 -20 -20 -21 -21 -22 -22 -22 -23 -23 -24 -24 -24 -24 -24 -24 -24 -24 -24 -25 -25 -25 -25 -25 -25 -25 -25 -26 -26 -25 -25 -26 -26 -26 -26
-20 -20 -20 -20 -21 -21 -22 -21 -21 -21 -22 -22 -22 -22 -22 -22 -23 -24 -24 -24 -24 -24 -24 -24 -24 -25 -25 -25 -26 -26 -26 -26 -25 -25 -26 -26 -26 -26 -26 -26 -26 -26 -26 -27
-21 -21 -21 -21 -21 -21 -22 -22 -22 -22 -22 -22 -23 -23 -23 -24 -24 -25 -25 -25 -25 -25 -25 -25 -25 -25 -26 -26 -26 -26 -26 -26 -26 -26 -26 -26 -26 -26 -26 -26 -26 -27 -27 -27
-21 -21 -22 -22 -22 -23 -23 -22 -23 -23 -24 -24 -23 -24 -24 -25 -25 -25 -25 -26 -26 -26 -26 -25 -25 -26 -26 -26 -27 -26 -26 -26 -26 -26 -26 -26 -26 -26 -26 -27 -27 -27 -28 -27
-23 -23 -23 -22 -22 -22 -23 -24 -24 -25 -25 -25 -25 -25 -25 -24 -25 -25 -26 -27 -27 -27 -26 -26 -26 -26 -26 -26 -27 -27 -26 -27 -26 -26 -26 -26 -27 -27 -27 -27 -27 -27 -27 -27
-23 -23 -22 -23 -23 -24 -25 -25 -26 -26 -25 -25 -25 -25 -25 -25 -25 -26 -27 -27 -27 -27 -26 -26 -26 -26 -26 -26 -27 -27 -27 -27 -26 -26 -27 -27 -27 -27 -27 -27 -27 -27 -27 -27
-24 -24 -24 -25 -25 -25 -25 -25 -26 -25 -26 -26 -26 -26 -26 -26 -26 -26 -27 -27 -27 -27 -27 -27 -26 -27 -27 -26 -26 -27 -26 -26 -27 -26 -27 -27 -27 -27 -27 -27 -27 -27 -27 -27
-26 -25 -25 -25 -26 -26 -25 -26 -26 -26 -27 -27 -27 -27 -27 -28 -28 -27 -28 -28 -27 -27 -27 -27 -27 -26 -27 -27 -26 -26 -26 -26 -27 -27 -27 -28 -28 -27 -27 -27 -27 -27 -27 -28
-26 -26 -25 -26 -26 -26 -27 -27 -27 -27 -27 -27 -28 -28 -29 -29 -28 -28 -28 -28 -27 -27 -27 -27 -27 -27 -27 -26 -26 -26 -27 -27 -27 -27 -28 -28 -28 -28 -28 -28 -28 -28 -28 -28
-27 -26 -26 -27 -27 -27 -28 -27 -27 -27 -27 -27 -28 -28 -28 -28 -28 -28 -28 -28 -27 -27 -27 -27 -27 -27 -27 -26 -26 -27 -27 -27 -27 -27 -27 -28 -28 -28 -28 -28 -28 -28 -28 -28
-27 -27 -27 -27 -28 -28 -27 -27 -27 -27 -27 -27 -27 -27 -27 -27 -27 -27 -27 -27 -28 -27 -27 -27 -27 -27 -27 -27 -27 -27 -27 -27 -27 -27 -27 -27 -27 -27 -28 -28 -28 -28 -28 -28
-27 -27 -27 -27 -27 -27 -27 -27 -27 -27 -27 -27 -27 -27 -27 -27 -27 -27 -27 -27 -27 -27 -27 -28 -28 -27 -27 -27 -27 -27 -27 -27 -27 -27 -27 -27 -28 -28 -28 -28 -28 -28 -28 -28
-27 -27 -27 -27 -27 -27 -27 -27 -27 -27 -27 -27 -27 -27 -27 -27 -27 -27 -27 -27 -28 -28 -28 -28 -28 -27 -27 -27 -27 -27 -27 -27 -27 -27 -28 -28 -28 -28 -28 -28 -28 -28 -28 -29
-27 -27 -27 -27 -27 -27 -27 -27 -27 -27 -27 -27 -27 -27 -27 -27 -27 -27 -28 -28 -28 -29 -29 -29 -28 -28 -28 -28 -28 -27 -27 -27 -28 -28 -28 -28 -28 -28 -28 -28 -29 -29 -29 -29
-27 -27 -27 -27 -27 -27 -27 -27 -27 -27 -28 -28 -28 -28 -28 -28 -28 -28 -28 -28 -29 -29 -29 -29 -29 -29 -29 -28 -28 -28 -28 -28 -28 -28 -28 -28 -28 -29 -29 -29 -29 -29 -29 -29
-27 -27 -27 -27 -27 -27 -27 -27 -27 -28 -28 -28 -28 -28 -28 -28 -28 -28 -28 -29 -29 -29 -29 -29 -29 -29 -28 -28 -28 -28 -28 -28 -28 -28 -28 -29 -29 -29 -29 -29 -29 -29 -30 -30
-27 -27 -27 -27 -27 -27 -28 -28 -28 -28 -29 -28 -28 -28 -28 -28 -28 -28 -29 -29 -29 -29 -29 -29 -29 -29 -28 -28 -28 -28 -28 -28 -29 -29 -29 -29 -29 -29 -29 -29 -30 -30 -30 -30
-28 -28 -28 -28 -28 -28 -28 -28 -28 -29 -29 -29 -29 -29 -29 -29 -28 -28 -29 -29 -29 -29 -29 -29 -29 -29 -29 -29 -29 -28 -28 -29 -29 -29 -29 -29 -29 -29 -30 -30 -30 -30 -30 -30
-29 -29 -28 -28 -28 -28 -28 -28 -28 -28 -28 -29 -29 -29 -29 -29 -29 -29 -29 -29 -29 -29 -29 -29 -29 -29 -29 -29 -29 -28 -29 -29 -29 -29 -29 -29 -29 -30 -30 -30 -30 -30 -31 -31
-29 -29 -29 -29 -29 -28 -28 -28 -28 -28 -28 -28 -28 -29 -29 -29 -29 -29 -29 -29 -30 -30 -29 -29 -29 -29 -29 -29 -29 -29 -29 -29 -29 -29 -29 -29 -30 -30 -30 -30 -30 -31 -31 -31
Height
5664 5668 5668 5672 5674 5674 5672 5673 5670 5677 5676 5672 5671 5671 5669 5667 5667 5667 5667 5665 5664 5663 5662 5659 5656 5653 5648 5643 5639 5635 5633 5630 5626 5623 5619 5617 5615 5612 5610 5607 5604 5601 5598 5594
5648 5652 5654 5655 5657 5658 5659 5657 5656 5660 5662 5658 5656 5656 5657 5656 5655 5655 5654 5654 5652 5648 5645 5641 5639 5636 5632 5628 5624 5622 5619 5615 5611 5608 5605 5603 5602 5600 5598 5595 5593 5590 5586 5581
5633 5637 5637 5636 5644 5644 5643 5643 5646 5646 5655 5648 5644 5644 5645 5644 5642 5641 5640 5638 5635 5631 5626 5623 5621 5619 5616 5613 5609 5606 5604 5601 5598 5595 5593 5591 5589 5587 5586 5584 5581 5577 5574 5570
5619 5621 5614 5623 5628 5629 5627 5629 5630 5634 5638 5638 5634 5631 5630 5630 5631 5630 5626 5622 5619 5616 5612 5609 5606 5604 5601 5599 5596 5593 5590 5588 5586 5583 5581 5579 5576 5575 5573 5570 5567 5565 5561 5557
5603 5603 5603 5605 5616 5618 5616 5618 5617 5621 5620 5622 5620 5619 5618 5617 5616 5613 5610 5607 5605 5603 5600 5597 5595 5592 5588 5586 5583 5579 5577 5575 5572 5570 5568 5566 5564 5562 5560 5557 5554 5551 5547 5544
5587 5589 5589 5599 5605 5602 5597 5600 5605 5605 5605 5605 5606 5605 5607 5603 5601 5598 5596 5593 5590 5589 5587 5584 5582 5578 5575 5572 5569 5567 5564 5562 5559 5557 5555 5555 5553 5551 5548 5545 5541 5538 5534 5530
5576 5576 5578 5587 5589 5586 5585 5597 5594 5593 5593 5594 5595 5594 5592 5588 5585 5582 5579 5577 5574 5573 5571 5570 5568 5565 5562 5559 5556 5554 5553 5551 5549 5547 5545 5544 5542 5539 5536 5532 5528 5524 5520 5515
5564 5564 5568 5573 5572 5575 5575 5573 5577 5579 5578 5578 5577 5574 5571 5568 5567 5566 5565 5563 5561 5559 5557 5554 5553 5551 5549 5547 5545 5543 5542 5540 5539 5537 5534 5532 5530 5527 5524 5520 5516 5511 5505 5501
5555 5556 5556 5556 5556 5559 5559 5559 5560 5562 5562 5560 5559 5557 5555 5552 5550 5549 5548 5546 5546 5545 5542 5540 5538 5538 5538 5537 5535 5534 5532 5530 5529 5526 5524 5521 5519 5516 5512 5507 5502 5497 5491 5486
5540 5544 5542 5543 5545 5544 5542 5541 5540 5541 5539 5539 5541 5540 5539 5538 5535 5533 5531 5529 5528 5529 5527 5527 5526 5525 5525 5525 5524 5523 5522 5519 5517 5515 5513 5511 5508 5504 5500 5496 5490 5483 5476 5470
5523 5526 5528 5530 5528 5525 5522 5523 5523 5521 5524 5525 5524 5522 5520 5519 5521 5518 5516 5514 5514 5514 5514 5513 5514 5514 5513 5513 5512 5511 5510 5508 5507 5505 5503 5501 5497 5494 5490 5486 5479 5471 5465 5462
5510 5511 5512 5514 5510 5507 5506 5506 5507 5506 5505 5503 5503 5503 5502 5503 5502 5502 5501 5501 5501 5501 5501 5502 5502 5502 5501 5500 5499 5499 5498 5497 5497 5495 5493 5490 5487 5484 5482 5477 5472 5466 5461 5458
5498 5492 5495 5496 5495 5495 5494 5491 5489 5488 5488 5487 5484 5482 5483 5484 5485 5486 5487 5488 5489 5489 5491 5492 5492 5491 5491 5490 5489 5490 5490 5488 5487 5485 5482 5480 5478 5476 5473 5470 5467 5464 5459 5455
5479 5481 5484 5481 5479 5477 5477 5477 5474 5474 5472 5470 5469 5466 5464 5464 5466 5469 5473 5475 5477 5479 5482 5482 5483 5483 5483 5482 5483 5482 5482 5480 5478 5475 5472 5471 5469 5468 5467 5464 5462 5461 5459 5456
5466 5467 5468 5468 5465 5463 5462 5462 5463 5462 5458 5455 5450 5447 5444 5443 5446 5452 5457 5463 5466 5470 5472 5473 5475 5476 5476 5477 5476 5475 5474 5472 5469 5466 5463 5461 5461 5461 5461 5460 5458 5457 5455 5455
5455 5456 5455 5454 5453 5451 5452 5451 5452 5450 5448 5444 5437 5428 5423 5424 5429 5435 5444 5451 5456 5460 5463 5466 5468 5469 5470 5470 5470 5468 5467 5465 5463 5459 5457 5456 5456 5456 5456 5455 5454 5452 5451 5449
5449 5447 5445 5444 5443 5443 5443 5444 5444 5444 5442 5438 5432 5426 5421 5422 5426 5433 5439 5445 5449 5453 5457 5460 5462 5462 5463 5464 5463 5462 5461 5459 5458 5455 5453 5452 5452 5451 5450 5449 5448 5446 5444 5442
5443 5442 5440 5440 5441 5441 5441 5441 5441 5441 5439 5436 5431 5427 5424 5425 5428 5432 5436 5441 5445 5448 5452 5454 5455 5457 5458 5458 5457 5456 5455 5454 5453 5452 5451 5450 5449 5448 5447 5445 5443 5441 5439 5436
5440 5440 5440 5440 5440 5440 5440 5439 5438 5437 5436 5434 5432 5429 5428 5428 5430 5432 5435 5438 5441 5444 5446 5448 5449 5451 5452 5451 5451 5451 5451 5450 5449 5449 5448 5447 5446 5445 5443 5440 5438 5435 5432 5429
5437 5438 5439 5440 5439 5439 5438 5437 5437 5436 5435 5434 5433 5432 5431 5431 5432 5433 5434 5436 5437 5439 5440 5442 5444 5445 5445 5445 5446 5446 5446 5445 5445 5445 5444 5443 5442 5440 5438 5435 5432 5429 5426 5422
5436 5436 5437 5437 5436 5436 5435 5435 5434 5434 5433 5433 5432 5432 5432 5432 5432 5431 5432 5432 5433 5434 5435 5437 5438 5438 5439 5441 5441 5441 5441 5441 5441 5441 5440 5439 5437 5435 5433 5430 5427 5424 5420 5415
5433 5434 5434 5434 5433 5433 5433 5432 5432 5431 5431 5431 5430 5430 5431 5430 5430 5429 5429 5429 5430 5430 5431 5432 5433 5435 5435 5436 5436 5436 5436 5437 5438 5437 5436 5434 5433 5431 5429 5426 5423 5419 5414 5410
5430 5430 5429 5429 5429 5429 5428 5428 5428 5427 5427 5427 5427 5428 5428 5427 5427 5427 5426 5426 5427 5428 5428 5429 5430 5431 5431 5431 5431 5432 5433 5433 5434 5433 5432 5430 5429 5427 5424 5422 5418 5414 5409 5405
5425 5425 5425 5425 5424 5424 5424 5423 5423 5423 5423 5423 5423 5423 5423 5424 5424 5424 5423 5424 5424 5424 5425 5425 5426 5427 5426 5427 5428 5428 5429 5430 5430 5429 5428 5427 5425 5423 5420 5417 5414 5410 5406 5401
5420 5420 5420 5419 5419 5419 5419 5419 5419 5419 5419 5419 5419 5419 5419 5419 5419 5419 5420 5420 5420 5420 5421 5421 5422 5422 5422 5423 5424 5425 5425 5426 5425 5425 5424 5423 5421 5419 5416 5413 5410 5406 5402 5398
5415 5414 5414 5414 5414 5414 5414 5414 5414 5414 5414 5414 5414 5414 5414 5414 5414 5414 5415 5416 5416 5416 5416 5417 5417 5418 5419 5420 5420 5421 5421 5421 5421 5420 5420 5418 5417 5414 5412 5409 5406 5402 5398 5395
5409 5409 5408 5408 5408 5408 5408 5408 5408 5408 5408 5408 5408 5409 5409 5409 5409 5409 5410 5411 5411 5412 5412 5413 5413 5414 5415 5416 5416 5417 5417 5417 5416 5416 5415 5414 5412 5410 5407 5404 5401 5397 5394 5391
Wind_Speed
56 59 58 58 57 55 58 59 56 54 54 55 56 53 51 47 48 47 46 48 49 55 56 60 64 64 68 70 70 62 58 57 55 53 52 52 50 49 46 44 40 41 41 46
64 63 62 60 61 61 59 59 54 56 54 59 56 52 48 47 45 45 46 51 57 60 63 61 59 59 58 58 56 53 55 54 54 53 51 48 47 43 40 39 39 40 39 44
68 60 58 62 60 57 58 55 57 59 53 52 48 46 47 45 48 50 53 56 58 57 53 52 53 53 52 53 54 55 54 53 51 47 48 46 38 37 38 40 39 41 43 45
66 64 62 63 54 56 56 56 59 54 52 48 48 49 48 50 54 55 57 58 54 52 51 50 51 51 52 53 53 52 49 48 49 48 45 42 40 38 40 42 41 42 43 45
61 58 60 59 57 65 56 56 55 57 52 45 45 48 51 57 59 61 60 59 56 53 49 49 50 49 48 49 49 49 49 50 48 47 46 40 38 38 40 43 46 48 48 49
59 59 68 63 64 54 53 55 51 52 46 47 50 52 55 61 63 63 62 61 57 53 50 48 48 47 49 48 45 43 44 44 45 42 41 41 40 43 43 45 48 49 51 51
59 66 71 61 55 49 53 52 50 50 51 55 55 59 62 63 63 62 63 60 58 57 55 55 52 49 48 48 43 38 37 37 34 34 35 43 47 46 44 46 49 50 52 53
67 66 62 57 57 53 50 52 52 54 55 58 62 63 65 66 64 63 62 60 58 56 56 59 52 50 47 45 39 35 31 35 39 39 42 45 45 43 45 47 48 49 51 54
64 64 63 62 59 55 57 59 56 55 58 62 65 66 69 68 61 60 58 60 60 58 53 52 51 47 43 40 40 36 31 33 35 36 37 38 42 44 45 46 46 49 50 51
51 51 50 52 53 56 58 61 64 66 66 67 66 66 63 60 59 61 63 63 58 55 49 49 48 45 42 40 34 32 35 37 39 39 38 40 41 42 42 42 44 50 55 40
46 47 51 53 57 63 67 68 70 68 67 67 67 67 65 63 60 59 57 52 48 47 47 47 46 43 41 39 40 43 39 39 37 36 37 38 38 38 38 39 41 36 32 27
51 54 56 57 62 68 70 69 66 64 61 59 60 59 57 54 53 55 48 43 43 43 43 43 42 38 38 37 36 32 31 34 34 34 36 37 36 33 36 32 29 32 28 26
53 60 60 62 63 62 57 53 52 51 51 54 55 55 54 54 52 48 43 39 40 43 40 40 35 32 31 29 26 26 28 28 29 32 32 33 32 32 28 22 23 25 21 20
49 49 49 48 49 49 49 49 51 54 54 55 56 58 58 58 58 55 47 37 38 39 35 31 27 23 21 23 22 20 24 25 30 33 34 33 31 25 21 21 21 20 20 13
39 41 40 41 42 45 49 50 48 45 42 45 50 53 56 57 55 53 41 36 39 32 27 26 26 26 23 21 20 22 22 26 27 30 28 24 20 18 17 13 15 16 18 18
35 36 39 40 42 44 39 34 32 33 33 32 35 40 42 44 39 34 34 33 25 25 23 20 20 22 22 20 20 20 23 24 25 22 16 15 15 18 20 20 21 22 22 23
20 25 27 25 22 18 18 20 18 15 14 16 12 8 4 5 13 19 20 20 21 22 21 20 20 17 15 16 16 19 20 20 17 15 13 13 14 15 16 18 20 20 21 22
11 5 5 4 6 8 6 6 6 2 4 9 7 4 1 4 7 11 13 14 17 19 19 20 15 14 14 15 17 18 17 16 13 11 10 9 10 12 14 17 19 21 23 25
7 4 2 1 4 4 4 6 8 1 6 9 7 5 3 3 7 10 12 15 18 24 22 17 15 14 15 14 16 17 17 14 13 12 12 13 15 16 18 20 21 23 25 27
13 12 9 4 4 5 5 4 3 3 4 2 3 6 4 3 1 5 10 14 16 18 19 19 19 17 15 15 16 17 16 13 13 13 14 15 16 18 18 19 21 22 24 26
12 11 7 6 5 5 5 5 5 6 6 6 5 5 5 6 7 8 10 10 11 15 21 23 20 17 16 15 16 15 13 11 11 12 12 15 15 16 17 18 20 22 23 24
9 8 5 4 5 7 9 9 9 9 10 9 8 7 7 7 8 9 10 13 13 14 13 13 13 14 12 13 14 12 10 10 10 10 12 13 14 16 17 18 20 22 24 25
11 8 9 10 11 12 12 13 15 16 16 15 14 13 12 10 9 9 8 8 9 8 9 10 11 12 12 12 11 10 10 10 9 10 11 12 14 15 17 19 21 23 25 26
11 13 12 13 15 15 14 14 14 13 13 14 15 16 15 13 11 9 9 9 9 9 10 12 13 13 12 10 10 10 10 9 9 9 10 12 14 15 17 20 21 22 24 26
17 16 14 14 14 14 13 14 14 14 15 14 13 12 13 14 13 12 11 12 11 11 12 12 13 12 11 11 11 11 10 9 9 9 11 12 14 16 18 19 21 23 24 24
16 17 17 17 18 18 18 18 18 18 17 16 17 17 17 15 14 14 14 14 13 12 11 11 12 12 12 12 11 10 10 10 11 11 13 14 15 17 18 20 21 22 23 24
12 12 13 14 16 16 15 16 19 19 18 18 18 19 18 16 15 15 16 15 14 12 11 11 12 13 14 13 12 11 11 12 12 13 15 16 17 18 20 21 23 23 24 24
Wind_Direction
264 265 256 264 258 257 269 281 274 279 273 276 285 288 289 291 292 292 294 299 289 287 289 283 287 284 282 286 288 290 287 285 284 284 285 287 288 288 289 286 285 290 294 299
268 261 254 257 261 273 278 281 270 270 275 280 283 282 285 287 290 293 288 284 281 284 287 286 286 285 285 284 285 284 282 281 283 285 285 285 286 288 280 279 284 286 291 298
256 254 263 271 271 278 280 270 263 271 271 275 276 280 282 280 284 288 289 287 285 286 287 287 285 283 283 282 280 277 278 279 280 281 282 284 283 278 274 277 282 281 290 294
254 263 270 276 270 276 264 255 262 267 271 274 273 279 281 279 284 288 287 290 288 288 287 286 286 284 282 279 278 278 280 280 282 284 283 283 276 275 277 279 282 286 287 292
266 267 268 269 265 266 259 261 264 270 274 277 280 280 283 284 285 287 289 287 288 288 289 289 285 282 280 280 281 280 281 282 286 285 285 278 272 278 283 288 288 289 290 290
269 266 258 257 256 256 254 255 273 276 272 278 279 278 282 283 282 282 283 286 284 280 283 298 290 284 284 283 284 285 283 286 286 282 280 278 275 278 279 286 290 292 292 292
259 249 249 249 254 252 253 269 272 268 270 275 276 277 279 282 282 281 281 282 281 283 290 299 294 286 285 283 283 287 281 287 288 285 280 278 279 278 285 286 288 291 293 293
239 239 243 247 246 258 266 265 267 269 269 270 271 275 279 280 278 278 279 281 282 285 290 295 289 282 280 281 283 286 281 276 278 279 276 276 279 282 285 289 292 296 296 297
242 246 251 255 263 269 268 268 271 271 269 268 270 273 276 278 278 278 279 280 282 285 288 285 281 278 279 277 279 281 272 274 285 282 277 279 281 286 289 292 295 296 295 292
255 259 269 275 275 271 267 268 271 273 272 271 273 275 278 281 279 277 278 281 284 284 278 279 277 275 274 276 269 273 279 279 279 279 278 281 286 289 292 294 300 295 295 291
271 271 266 267 269 269 270 271 272 275 278 281 283 281 279 278 275 275 276 278 280 280 279 279 278 278 278 277 271 272 277 275 277 281 286 287 288 291 297 300 303 308 303 284
260 263 264 267 269 269 270 274 279 280 279 279 278 277 277 276 272 269 272 275 275 275 275 276 278 281 281 276 272 271 278 276 275 285 287 288 291 293 299 304 302 315 306 293
259 259 263 265 268 273 275 275 274 275 275 272 272 272 270 270 270 271 270 267 265 267 270 272 277 275 272 270 267 268 278 278 282 286 290 292 292 294 297 293 315 316 310 315
260 264 265 266 268 267 269 270 270 272 275 278 278 277 275 271 266 263 265 258 255 260 264 267 263 262 271 266 266 274 280 286 294 296 291 288 287 287 290 298 295 305 312 326
263 265 265 266 270 270 269 271 277 280 280 278 276 273 269 266 265 265 257 251 250 256 257 254 255 260 268 270 272 285 293 301 298 299 291 283 279 277 279 284 302 308 299 297
272 273 272 269 267 269 274 275 278 280 280 283 288 279 268 259 246 243 231 241 244 244 241 239 248 257 262 266 284 293 298 298 300 304 295 293 285 279 280 279 282 286 289 290
266 268 268 265 265 264 268 271 264 270 289 292 306 326 320 240 231 233 237 234 228 235 234 243 252 255 263 274 286 294 293 301 295 313 306 295 292 292 294 295 296 299 298 295
247 231 227 229 250 248 248 220 179 197 39 36 46 34 301 213 200 201 208 222 227 226 229 258 242 250 264 276 284 287 293 293 293 294 303 307 309 307 307 306 304 301 299 296
204 171 196 311 240 218 176 163 167 205 346 351 25 45 39 154 193 205 209 217 222 231 237 231 242 257 266 273 283 283 287 285 280 283 290 296 302 306 309 307 306 304 302 300
227 244 268 247 219 204 184 182 223 271 308 310 354 355 17 61 187 234 242 242 240 240 243 246 245 251 258 270 274 280 278 278 280 281 286 294 305 312 314 315 316 315 313 310
228 234 239 243 234 234 252 263 255 245 240 247 277 305 296 289 292 285 273 262 263 259 254 243 240 242 247 259 270 274 269 273 277 281 292 306 311 315 321 324 326 328 328 326
192 192 206 248 257 254 253 259 263 265 258 264 267 266 266 280 295 285 258 243 246 249 239 237 240 242 248 261 269 262 261 269 271 287 305 310 315 322 327 331 334 338 339 339
242 268 284 291 287 283 279 275 273 272 272 274 273 266 263 265 283 288 266 235 227 231 241 245 245 255 264 267 251 249 259 258 275 301 310 315 319 326 330 332 336 342 345 344
256 263 265 273 280 280 277 273 270 270 270 273 271 263 258 261 271 281 261 245 244 255 261 259 258 265 270 247 244 253 249 259 286 303 311 316 321 324 329 333 337 339 344 345
257 259 264 273 280 275 271 272 275 275 270 268 268 268 261 263 268 269 260 255 260 268 265 261 263 267 255 244 250 248 247 264 285 301 309 315 321 324 328 331 335 337 338 341
273 270 267 269 273 271 268 267 270 269 267 267 265 266 266 268 267 260 255 255 257 268 269 265 265 262 245 246 249 247 252 269 283 295 304 312 317 322 327 329 331 333 334 337
276 278 276 269 265 267 269 267 264 263 263 263 263 262 263 263 260 259 252 252 256 263 265 267 267 253 244 245 246 249 257 269 281 291 297 304 310 316 321 325 329 331 331 332